Year,Month,Day,Hour,Minute,Value (Times are PST for temperature in C)
2012,08,15,00,02,15.60
2012,08,15,00,03,15.60
2012,08,15,00,04,15.60
2012,08,15,00,05,15.60
2012,08,15,00,06,15.50
2012,08,15,00,07,15.50
2012,08,15,00,08,15.50
2012,08,15,00,09,15.50
2012,08,15,00,10,15.40
2012,08,15,00,11,15.40
2012,08,15,00,12,15.40
2012,08,15,00,13,15.40
2012,08,15,00,14,15.40
2012,08,15,00,16,15.40
2012,08,15,00,17,15.40
2012,08,15,00,18,15.40
2012,08,15,00,20,15.30
2012,08,15,00,21,15.30
2012,08,15,00,22,15.30
2012,08,15,00,23,15.30
2012,08,15,00,24,15.30
2012,08,15,00,25,15.30
2012,08,15,00,26,15.30
2012,08,15,00,27,15.30
2012,08,15,00,28,15.30
2012,08,15,00,29,15.30
2012,08,15,00,30,15.30
2012,08,15,00,31,15.30
2012,08,15,00,32,15.30
2012,08,15,00,33,15.30
2012,08,15,00,34,15.30
2012,08,15,00,35,15.30
2012,08,15,00,36,15.30
2012,08,15,00,38,15.30
2012,08,15,00,39,15.30
2012,08,15,00,40,15.30
2012,08,15,00,41,15.30
2012,08,15,00,42,15.30
2012,08,15,00,43,15.30
2012,08,15,00,44,15.30
2012,08,15,00,45,15.30
2012,08,15,00,46,15.30
2012,08,15,00,47,15.30
2012,08,15,00,48,15.30
2012,08,15,00,49,15.30
2012,08,15,00,50,15.30
2012,08,15,00,51,15.20
2012,08,15,00,52,15.20
2012,08,15,00,53,15.20
2012,08,15,00,54,15.20
2012,08,15,00,55,15.20
2012,08,15,00,56,15.20
2012,08,15,00,57,15.20
2012,08,15,00,58,15.20
2012,08,15,00,59,15.20
2012,08,15,01,00,15.20
2012,08,15,01,01,15.20
2012,08,15,01,02,15.20
2012,08,15,01,03,15.20
2012,08,15,01,04,15.20
2012,08,15,01,05,15.30
2012,08,15,01,06,15.30
2012,08,15,01,08,15.40
2012,08,15,01,09,15.60
2012,08,15,01,10,15.60
2012,08,15,01,11,15.70
2012,08,15,01,12,15.80
2012,08,15,01,13,15.90
2012,08,15,01,14,15.90
2012,08,15,01,15,16.00
2012,08,15,01,16,16.20
2012,08,15,01,17,16.30
2012,08,15,01,18,16.30
2012,08,15,01,19,16.40
2012,08,15,01,20,16.40
2012,08,15,01,21,16.50
2012,08,15,01,22,16.60
2012,08,15,01,23,16.60
2012,08,15,01,24,16.60
2012,08,15,01,25,16.60
2012,08,15,01,27,16.60
2012,08,15,01,28,16.70
2012,08,15,01,29,16.70
2012,08,15,01,30,16.70
2012,08,15,01,31,16.70
2012,08,15,01,33,16.70
2012,08,15,01,34,16.70
2012,08,15,01,35,16.80
2012,08,15,01,36,16.80
2012,08,15,01,37,16.80
2012,08,15,01,38,16.90
2012,08,15,01,39,16.90
2012,08,15,01,40,16.90
2012,08,15,01,42,16.90
2012,08,15,01,43,16.90
2012,08,15,01,44,16.90
2012,08,15,01,45,17.00
2012,08,15,01,47,16.90
2012,08,15,01,48,16.90
2012,08,15,01,49,16.90
2012,08,15,01,50,16.90
2012,08,15,01,51,16.90
2012,08,15,01,52,16.90
2012,08,15,01,53,16.80
2012,08,15,01,54,16.80
2012,08,15,01,55,16.80
2012,08,15,01,56,16.80
2012,08,15,01,57,16.80
2012,08,15,01,58,16.80
2012,08,15,01,59,16.70
2012,08,15,02,00,16.70
2012,08,15,02,01,16.70
2012,08,15,02,02,16.70
2012,08,15,02,03,16.70
2012,08,15,02,04,16.70
2012,08,15,02,05,16.70
2012,08,15,02,06,16.70
2012,08,15,02,07,16.60
2012,08,15,02,09,16.60
2012,08,15,02,10,16.60
2012,08,15,02,11,16.60
2012,08,15,02,12,16.60
2012,08,15,02,13,16.60
2012,08,15,02,14,16.60
2012,08,15,02,15,16.60
2012,08,15,02,16,16.60
2012,08,15,02,17,16.60
2012,08,15,02,18,16.50
2012,08,15,02,19,16.50
2012,08,15,02,20,16.50
2012,08,15,02,21,16.50
2012,08,15,02,22,16.60
2012,08,15,02,23,16.50
2012,08,15,02,24,16.50
2012,08,15,02,25,16.50
2012,08,15,02,26,16.60
2012,08,15,02,27,16.50
2012,08,15,02,29,16.50
2012,08,15,02,30,16.50
2012,08,15,02,31,16.50
2012,08,15,02,32,16.50
2012,08,15,02,33,16.50
2012,08,15,02,35,16.50
2012,08,15,02,36,16.50
2012,08,15,02,37,16.50
2012,08,15,02,39,16.50
2012,08,15,02,40,16.50
2012,08,15,02,41,16.50
2012,08,15,02,43,16.50
2012,08,15,02,44,16.40
2012,08,15,02,45,16.40
2012,08,15,02,46,16.40
2012,08,15,02,48,16.40
2012,08,15,02,49,16.40
2012,08,15,02,50,16.30
2012,08,15,02,51,16.30
2012,08,15,02,53,16.30
2012,08,15,02,54,16.20
2012,08,15,02,55,16.10
2012,08,15,02,56,16.10
2012,08,15,02,58,16.00
2012,08,15,02,59,15.90
2012,08,15,03,00,15.90
2012,08,15,03,02,15.90
2012,08,15,03,03,15.90
2012,08,15,03,04,15.80
2012,08,15,03,05,15.80
2012,08,15,03,07,15.80
2012,08,15,03,08,15.80
2012,08,15,03,09,15.80
2012,08,15,03,10,15.70
2012,08,15,03,11,15.70
2012,08,15,03,12,15.70
2012,08,15,03,14,15.70
2012,08,15,03,15,15.70
2012,08,15,03,16,15.70
2012,08,15,03,18,15.70
2012,08,15,03,19,15.70
2012,08,15,03,20,15.70
2012,08,15,03,21,15.70
2012,08,15,03,23,15.60
2012,08,15,03,24,15.60
2012,08,15,03,25,15.60
2012,08,15,03,27,15.60
2012,08,15,03,28,15.60
2012,08,15,03,29,15.60
2012,08,15,03,30,15.60
2012,08,15,03,32,15.60
2012,08,15,03,33,15.50
2012,08,15,03,34,15.50
2012,08,15,03,35,15.50
2012,08,15,03,37,15.40
2012,08,15,03,38,15.40
2012,08,15,03,39,15.40
2012,08,15,03,40,15.40
2012,08,15,03,42,15.40
2012,08,15,03,43,15.40
2012,08,15,03,44,15.30
2012,08,15,03,46,15.30
2012,08,15,03,47,15.30
2012,08,15,03,48,15.30
2012,08,15,03,49,15.30
2012,08,15,03,51,15.30
2012,08,15,03,52,15.20
2012,08,15,03,53,15.20
2012,08,15,03,54,15.20
2012,08,15,03,56,15.20
2012,08,15,03,57,15.10
2012,08,15,03,58,15.10
2012,08,15,03,59,15.10
2012,08,15,04,00,15.10
2012,08,15,04,02,15.00
2012,08,15,04,03,15.00
2012,08,15,04,04,15.00
2012,08,15,04,05,15.00
2012,08,15,04,06,15.00
2012,08,15,04,07,14.90
2012,08,15,04,08,14.90
2012,08,15,04,09,14.90
2012,08,15,04,10,14.90
2012,08,15,04,11,14.90
2012,08,15,04,12,14.90
2012,08,15,04,13,14.90
2012,08,15,04,14,14.90
2012,08,15,04,16,14.90
2012,08,15,04,17,14.90
2012,08,15,04,18,14.80
2012,08,15,04,19,14.80
2012,08,15,04,21,14.80
2012,08,15,04,22,14.80
2012,08,15,04,23,14.80
2012,08,15,04,24,14.80
2012,08,15,04,26,14.80
2012,08,15,04,27,14.80
2012,08,15,04,28,14.80
2012,08,15,04,29,14.80
2012,08,15,04,30,14.80
2012,08,15,04,31,14.70
2012,08,15,04,32,14.70
2012,08,15,04,33,14.70
2012,08,15,04,35,14.80
2012,08,15,04,36,14.80
2012,08,15,04,37,14.80
2012,08,15,04,38,14.80
2012,08,15,04,39,14.80
2012,08,15,04,40,14.80
2012,08,15,04,41,14.80
2012,08,15,04,42,14.80
2012,08,15,04,43,14.80
2012,08,15,04,45,14.90
2012,08,15,04,46,14.90
2012,08,15,04,47,14.90
2012,08,15,04,48,14.90
2012,08,15,04,50,14.90
2012,08,15,04,51,14.90
2012,08,15,04,52,14.90
2012,08,15,04,53,14.90
2012,08,15,04,54,14.90
2012,08,15,04,55,15.00
2012,08,15,04,56,15.00
2012,08,15,04,58,15.00
2012,08,15,04,59,15.00
2012,08,15,05,00,15.10
2012,08,15,05,01,15.10
2012,08,15,05,02,15.10
2012,08,15,05,04,15.00
2012,08,15,05,05,15.00
2012,08,15,05,06,15.00
2012,08,15,05,07,14.90
2012,08,15,05,09,14.90
2012,08,15,05,10,14.90
2012,08,15,05,11,14.90
2012,08,15,05,12,14.90
2012,08,15,05,14,14.80
2012,08,15,05,15,14.80
2012,08,15,05,16,14.80
2012,08,15,05,17,14.80
2012,08,15,05,18,14.80
2012,08,15,05,20,14.70
2012,08,15,05,21,14.70
2012,08,15,05,22,14.70
2012,08,15,05,24,14.70
2012,08,15,05,25,14.70
2012,08,15,05,26,14.70
2012,08,15,05,28,14.70
2012,08,15,05,29,14.70
2012,08,15,05,30,14.70
2012,08,15,05,31,14.70
2012,08,15,05,33,14.70
2012,08,15,05,34,14.70
2012,08,15,05,35,14.80
2012,08,15,05,37,14.80
2012,08,15,05,38,14.80
2012,08,15,05,39,14.80
2012,08,15,05,40,14.90
2012,08,15,05,41,14.90
2012,08,15,05,42,14.90
2012,08,15,05,43,14.90
2012,08,15,05,44,14.90
2012,08,15,05,46,14.90
2012,08,15,05,47,15.00
2012,08,15,05,48,15.00
2012,08,15,05,50,15.00
2012,08,15,05,51,15.00
2012,08,15,05,52,15.00
2012,08,15,05,53,15.10
2012,08,15,05,55,15.10
2012,08,15,05,56,15.20
2012,08,15,05,57,15.30
2012,08,15,05,58,15.30
2012,08,15,05,59,15.40
2012,08,15,06,01,15.40
2012,08,15,06,02,15.50
2012,08,15,06,03,15.60
2012,08,15,06,04,15.60
2012,08,15,06,05,15.60
2012,08,15,06,06,15.60
2012,08,15,06,07,15.60
2012,08,15,06,08,15.60
2012,08,15,06,10,15.60
2012,08,15,06,11,15.50
2012,08,15,06,12,15.50
2012,08,15,06,14,15.50
2012,08,15,06,15,15.50
2012,08,15,06,16,15.50
2012,08,15,06,17,15.40
2012,08,15,06,18,15.40
2012,08,15,06,19,15.40
2012,08,15,06,20,15.40
2012,08,15,06,21,15.40
2012,08,15,06,23,15.30
2012,08,15,06,24,15.30
2012,08,15,06,25,15.30
2012,08,15,06,26,15.40
2012,08,15,06,28,15.50
2012,08,15,06,29,15.60
2012,08,15,06,30,15.70
2012,08,15,06,31,15.80
2012,08,15,06,32,15.80
2012,08,15,06,34,15.90
2012,08,15,06,35,16.10
2012,08,15,06,36,16.20
2012,08,15,06,37,16.30
2012,08,15,06,38,16.30
2012,08,15,06,40,16.30
2012,08,15,06,41,16.40
2012,08,15,06,42,16.40
2012,08,15,06,43,16.40
2012,08,15,06,44,16.50
2012,08,15,06,46,16.50
2012,08,15,06,47,16.60
2012,08,15,06,48,16.60
2012,08,15,06,50,16.60
2012,08,15,06,51,16.70
2012,08,15,06,52,16.70
2012,08,15,06,53,16.70
2012,08,15,06,54,16.70
2012,08,15,06,56,16.60
2012,08,15,06,57,16.60
2012,08,15,06,58,16.50
2012,08,15,06,59,16.50
2012,08,15,07,01,16.40
2012,08,15,07,02,16.30
2012,08,15,07,03,16.30
2012,08,15,07,04,16.30
2012,08,15,07,06,16.20
2012,08,15,07,07,16.20
2012,08,15,07,08,16.10
2012,08,15,07,09,16.00
2012,08,15,07,11,15.90
2012,08,15,07,12,15.80
2012,08,15,07,13,15.80
2012,08,15,07,14,15.70
2012,08,15,07,16,15.70
2012,08,15,07,17,15.70
2012,08,15,07,18,15.70
2012,08,15,07,19,15.60
2012,08,15,07,21,15.70
2012,08,15,07,22,15.70
2012,08,15,07,23,15.70
2012,08,15,07,24,15.80
2012,08,15,07,26,15.80
2012,08,15,07,27,15.90
2012,08,15,07,28,16.10
2012,08,15,07,29,16.10
2012,08,15,07,30,16.20
2012,08,15,07,32,16.30
2012,08,15,07,33,16.40
2012,08,15,07,34,16.50
2012,08,15,07,36,16.60
2012,08,15,07,37,16.60
2012,08,15,07,38,16.80
2012,08,15,07,39,16.80
2012,08,15,07,41,16.90
2012,08,15,07,42,17.10
2012,08,15,07,43,17.20
2012,08,15,07,44,17.30
2012,08,15,07,45,17.30
2012,08,15,07,46,17.40
2012,08,15,07,47,17.60
2012,08,15,07,49,17.60
2012,08,15,07,50,17.80
2012,08,15,07,51,17.80
2012,08,15,07,52,17.90
2012,08,15,07,53,18.00
2012,08,15,07,55,18.10
2012,08,15,07,56,18.20
2012,08,15,07,57,18.30
2012,08,15,07,58,18.30
2012,08,15,08,00,18.40
2012,08,15,08,01,18.60
2012,08,15,08,02,18.70
2012,08,15,08,03,18.80
2012,08,15,08,05,18.90
2012,08,15,08,06,19.20
2012,08,15,08,07,19.30
2012,08,15,08,08,19.40
2012,08,15,08,10,19.40
2012,08,15,08,11,19.60
2012,08,15,08,12,19.70
2012,08,15,08,13,19.80
2012,08,15,08,15,19.80
2012,08,15,08,16,19.90
2012,08,15,08,17,19.90
2012,08,15,08,18,20.00
2012,08,15,08,20,20.00
2012,08,15,08,21,20.00
2012,08,15,08,22,20.00
2012,08,15,08,23,20.00
2012,08,15,08,24,20.10
2012,08,15,08,26,20.10
2012,08,15,08,27,20.20
2012,08,15,08,28,20.30
2012,08,15,08,29,20.30
2012,08,15,08,30,20.40
2012,08,15,08,31,20.40
2012,08,15,08,32,20.40
2012,08,15,08,33,20.50
2012,08,15,08,34,20.60
2012,08,15,08,35,20.60
2012,08,15,08,36,20.60
2012,08,15,08,37,20.70
2012,08,15,08,38,20.80
2012,08,15,08,39,20.80
2012,08,15,08,40,20.90
2012,08,15,08,41,21.00
2012,08,15,08,42,21.10
2012,08,15,08,43,21.10
2012,08,15,08,44,21.20
2012,08,15,08,45,21.20
2012,08,15,08,46,21.30
2012,08,15,08,47,21.30
2012,08,15,08,48,21.30
2012,08,15,08,49,21.30
2012,08,15,08,50,21.40
2012,08,15,08,51,21.40
2012,08,15,08,52,21.40
2012,08,15,08,53,21.50
2012,08,15,08,54,21.60
2012,08,15,08,55,21.60
2012,08,15,08,56,21.70
2012,08,15,08,57,21.80
2012,08,15,08,58,21.90
2012,08,15,08,59,21.90
2012,08,15,09,00,22.00
2012,08,15,09,01,22.00
2012,08,15,09,02,22.10
2012,08,15,09,03,22.10
2012,08,15,09,04,22.20
2012,08,15,09,05,22.20
2012,08,15,09,06,22.20
2012,08,15,09,07,22.30
2012,08,15,09,08,22.30
2012,08,15,09,09,22.30
2012,08,15,09,10,22.40
2012,08,15,09,11,22.40
2012,08,15,09,12,22.50
2012,08,15,09,13,22.60
2012,08,15,09,14,22.60
2012,08,15,09,16,22.70
2012,08,15,09,17,22.70
2012,08,15,09,18,22.80
2012,08,15,09,20,22.80
2012,08,15,09,21,22.80
2012,08,15,09,22,22.90
2012,08,15,09,23,22.90
2012,08,15,09,24,22.90
2012,08,15,09,25,22.90
2012,08,15,09,26,22.90
2012,08,15,09,27,22.90
2012,08,15,09,28,22.90
2012,08,15,09,29,23.00
2012,08,15,09,30,23.00
2012,08,15,09,31,23.00
2012,08,15,09,32,23.10
2012,08,15,09,33,23.10
2012,08,15,09,34,23.10
2012,08,15,09,35,23.10
2012,08,15,09,36,23.10
2012,08,15,09,37,23.10
2012,08,15,09,38,23.00
2012,08,15,09,39,23.10
2012,08,15,09,40,23.10
2012,08,15,09,42,23.10
2012,08,15,09,43,23.10
2012,08,15,09,44,23.10
2012,08,15,09,45,23.10
2012,08,15,09,46,23.10
2012,08,15,09,47,23.10
2012,08,15,09,48,23.10
2012,08,15,09,49,23.10
2012,08,15,09,50,23.20
2012,08,15,09,52,23.20
2012,08,15,09,53,23.20
2012,08,15,09,54,23.30
2012,08,15,09,55,23.30
2012,08,15,09,57,23.30
2012,08,15,09,58,23.30
2012,08,15,09,59,23.40
2012,08,15,10,00,23.40
2012,08,15,10,01,23.40
2012,08,15,10,02,23.40
2012,08,15,10,03,23.50
2012,08,15,10,04,23.60
2012,08,15,10,05,23.60
2012,08,15,10,07,23.60
2012,08,15,10,08,23.60
2012,08,15,10,09,23.60
2012,08,15,10,10,23.70
2012,08,15,10,11,23.70
2012,08,15,10,12,23.70
2012,08,15,10,13,23.80
2012,08,15,10,14,23.80
2012,08,15,10,15,23.80
2012,08,15,10,16,23.90
2012,08,15,10,17,23.90
2012,08,15,10,18,23.90
2012,08,15,10,19,23.90
2012,08,15,10,20,23.90
2012,08,15,10,21,24.00
2012,08,15,10,22,24.10
2012,08,15,10,23,24.10
2012,08,15,10,24,24.10
2012,08,15,10,25,24.10
2012,08,15,10,26,24.10
2012,08,15,10,27,24.20
2012,08,15,10,28,24.20
2012,08,15,10,29,24.20
2012,08,15,10,30,24.20
2012,08,15,10,31,24.30
2012,08,15,10,33,24.30
2012,08,15,10,34,24.40
2012,08,15,10,35,24.40
2012,08,15,10,37,24.40
2012,08,15,10,38,24.40
2012,08,15,10,39,24.30
2012,08,15,10,40,24.30
2012,08,15,10,41,24.30
2012,08,15,10,43,24.40
2012,08,15,10,44,24.40
2012,08,15,10,45,24.50
2012,08,15,10,47,24.60
2012,08,15,10,48,24.60
2012,08,15,10,49,24.70
2012,08,15,10,50,24.70
2012,08,15,10,52,24.80
2012,08,15,10,53,24.80
2012,08,15,10,54,24.80
2012,08,15,10,55,24.80
2012,08,15,10,57,24.80
2012,08,15,10,58,24.80
2012,08,15,10,59,24.70
2012,08,15,11,00,24.80
2012,08,15,11,02,24.80
2012,08,15,11,03,24.80
2012,08,15,11,04,24.80
2012,08,15,11,05,24.80
2012,08,15,11,07,24.80
2012,08,15,11,08,24.90
2012,08,15,11,09,24.90
2012,08,15,11,11,24.90
2012,08,15,11,12,24.90
2012,08,15,11,13,24.90
2012,08,15,11,14,24.90
2012,08,15,11,16,25.00
2012,08,15,11,17,25.10
2012,08,15,11,18,25.10
2012,08,15,11,19,25.20
2012,08,15,11,21,25.20
2012,08,15,11,22,25.30
2012,08,15,11,23,25.20
2012,08,15,11,24,25.20
2012,08,15,11,26,25.20
2012,08,15,11,27,25.20
2012,08,15,11,28,25.30
2012,08,15,11,29,25.30
2012,08,15,11,31,25.30
2012,08,15,11,32,25.30
2012,08,15,11,33,25.40
2012,08,15,11,34,25.40
2012,08,15,11,35,25.40
2012,08,15,11,37,25.30
2012,08,15,11,38,25.40
2012,08,15,11,39,25.40
2012,08,15,11,40,25.40
2012,08,15,11,42,25.40
2012,08,15,11,43,25.40
2012,08,15,11,44,25.50
2012,08,15,11,45,25.50
2012,08,15,11,46,25.60
2012,08,15,11,48,25.60
2012,08,15,11,49,25.60
2012,08,15,11,50,25.60
2012,08,15,11,51,25.70
2012,08,15,11,52,25.70
2012,08,15,11,54,25.70
2012,08,15,11,55,25.60
2012,08,15,11,56,25.70
2012,08,15,11,57,25.70
2012,08,15,11,58,25.70
2012,08,15,12,00,25.70
2012,08,15,12,01,25.70
2012,08,15,12,02,25.70
2012,08,15,12,03,25.80
2012,08,15,12,04,25.80
2012,08,15,12,06,25.80
2012,08,15,12,07,25.90
2012,08,15,12,13,26.10
2012,08,15,12,14,26.10
2012,08,15,12,15,26.10
2012,08,15,12,17,26.10
2012,08,15,12,18,26.10
2012,08,15,12,19,26.20
2012,08,15,12,20,26.20
2012,08,15,12,22,26.20
2012,08,15,12,23,26.30
2012,08,15,12,24,26.30
2012,08,15,12,26,26.30
2012,08,15,12,27,26.30
2012,08,15,12,28,26.30
2012,08,15,12,30,26.30
2012,08,15,12,31,26.40
2012,08,15,12,32,26.40
2012,08,15,12,33,26.50
2012,08,15,12,35,26.50
2012,08,15,12,37,26.60
2012,08,15,12,38,26.60
2012,08,15,12,39,26.60
2012,08,15,12,40,26.60
2012,08,15,12,41,26.60
2012,08,15,12,42,26.70
2012,08,15,12,43,26.80
2012,08,15,12,44,26.80
2012,08,15,12,45,26.90
2012,08,15,12,46,26.90
2012,08,15,12,47,26.90
2012,08,15,12,48,26.90
2012,08,15,12,49,26.90
2012,08,15,12,50,26.80
2012,08,15,12,51,26.80
2012,08,15,12,52,26.80
2012,08,15,12,53,26.80
2012,08,15,12,54,26.90
2012,08,15,12,55,26.90
2012,08,15,12,56,27.00
2012,08,15,12,57,27.10
2012,08,15,12,58,27.10
2012,08,15,12,59,27.10
2012,08,15,13,00,27.10
2012,08,15,13,01,27.20
2012,08,15,13,03,27.20
2012,08,15,13,04,27.30
2012,08,15,13,05,27.30
2012,08,15,13,06,27.30
2012,08,15,13,07,27.40
2012,08,15,13,08,27.30
2012,08,15,13,09,27.30
2012,08,15,13,10,27.30
2012,08,15,13,11,27.30
2012,08,15,13,12,27.20
2012,08,15,13,13,27.10
2012,08,15,13,14,27.10
2012,08,15,13,15,27.10
2012,08,15,13,17,27.10
2012,08,15,13,18,27.20
2012,08,15,13,19,27.20
2012,08,15,13,20,27.20
2012,08,15,13,22,27.30
2012,08,15,13,23,27.20
2012,08,15,13,24,27.20
2012,08,15,13,25,27.20
2012,08,15,13,27,27.20
2012,08,15,13,28,27.30
2012,08,15,13,29,27.30
2012,08,15,13,31,27.30
2012,08,15,13,32,27.30
2012,08,15,13,33,27.30
2012,08,15,13,34,27.30
2012,08,15,13,36,27.30
2012,08,15,13,37,27.40
2012,08,15,13,38,27.50
2012,08,15,13,39,27.60
2012,08,15,13,40,27.60
2012,08,15,13,41,27.60
2012,08,15,13,42,27.60
2012,08,15,13,43,27.60
2012,08,15,13,44,27.60
2012,08,15,13,45,27.70
2012,08,15,13,46,27.70
2012,08,15,13,47,27.70
2012,08,15,13,48,27.80
2012,08,15,13,49,27.90
2012,08,15,13,50,27.90
2012,08,15,13,51,27.90
2012,08,15,13,52,27.90
2012,08,15,13,53,27.80
2012,08,15,13,54,27.80
2012,08,15,13,55,27.80
2012,08,15,13,56,27.80
2012,08,15,13,58,27.90
2012,08,15,13,59,28.10
2012,08,15,14,00,28.10
2012,08,15,14,02,28.10
2012,08,15,14,03,28.10
2012,08,15,14,04,28.10
2012,08,15,14,05,28.20
2012,08,15,14,06,28.20
2012,08,15,14,07,28.10
2012,08,15,14,08,28.10
2012,08,15,14,09,28.00
2012,08,15,14,10,28.00
2012,08,15,14,11,28.00
2012,08,15,14,12,27.90
2012,08,15,14,13,27.90
2012,08,15,14,14,27.90
2012,08,15,14,15,27.90
2012,08,15,14,16,27.90
2012,08,15,14,17,27.90
2012,08,15,14,18,27.90
2012,08,15,14,19,27.90
2012,08,15,14,20,27.90
2012,08,15,14,22,27.90
2012,08,15,14,23,27.90
2012,08,15,14,24,28.10
2012,08,15,14,25,28.10
2012,08,15,14,26,28.20
2012,08,15,14,27,28.20
2012,08,15,14,28,28.30
2012,08,15,14,29,28.30
2012,08,15,14,30,28.30
2012,08,15,14,31,28.30
2012,08,15,14,32,28.30
2012,08,15,14,33,28.20
2012,08,15,14,34,28.20
2012,08,15,14,35,28.20
2012,08,15,14,37,28.30
2012,08,15,14,38,28.30
2012,08,15,14,39,28.30
2012,08,15,14,40,28.30
2012,08,15,14,42,28.30
2012,08,15,14,43,28.30
2012,08,15,14,44,28.30
2012,08,15,14,45,28.30
2012,08,15,14,47,28.30
2012,08,15,14,48,28.40
2012,08,15,14,49,28.40
2012,08,15,14,50,28.50
2012,08,15,14,52,28.50
2012,08,15,14,53,28.60
2012,08,15,14,54,28.70
2012,08,15,14,56,28.70
2012,08,15,14,57,28.80
2012,08,15,14,58,28.80
2012,08,15,14,59,28.80
2012,08,15,15,00,28.90
2012,08,15,15,01,28.90
2012,08,15,15,02,29.00
2012,08,15,15,03,29.00
2012,08,15,15,04,28.90
2012,08,15,15,05,28.90
2012,08,15,15,06,28.80
2012,08,15,15,07,28.80
2012,08,15,15,08,28.80
2012,08,15,15,09,28.80
2012,08,15,15,11,28.80
2012,08,15,15,12,28.80
2012,08,15,15,13,28.90
2012,08,15,15,14,28.90
2012,08,15,15,16,28.90
2012,08,15,15,17,28.80
2012,08,15,15,18,28.90
2012,08,15,15,19,28.90
2012,08,15,15,20,28.90
2012,08,15,15,21,28.90
2012,08,15,15,22,28.90
2012,08,15,15,23,28.90
2012,08,15,15,25,28.90
2012,08,15,15,26,28.90
2012,08,15,15,27,28.90
2012,08,15,15,28,28.90
2012,08,15,15,29,28.90
2012,08,15,15,30,28.90
2012,08,15,15,31,28.90
2012,08,15,15,32,28.90
2012,08,15,15,33,29.00
2012,08,15,15,34,29.00
2012,08,15,15,35,28.90
2012,08,15,15,36,28.90
2012,08,15,15,37,28.90
2012,08,15,15,39,28.90
2012,08,15,15,40,28.90
2012,08,15,15,41,28.90
2012,08,15,15,42,29.00
2012,08,15,15,43,29.00
2012,08,15,15,45,29.00
2012,08,15,15,46,29.00
2012,08,15,15,47,29.00
2012,08,15,15,48,29.10
2012,08,15,15,49,29.20
2012,08,15,15,51,29.20
2012,08,15,15,52,29.10
2012,08,15,15,53,29.00
2012,08,15,15,55,28.90
2012,08,15,15,56,28.90
2012,08,15,15,57,28.90
2012,08,15,15,58,28.90
2012,08,15,16,00,29.00
2012,08,15,16,01,29.10
2012,08,15,16,02,29.20
2012,08,15,16,03,29.30
2012,08,15,16,05,29.30
2012,08,15,16,06,29.40
2012,08,15,16,07,29.40
2012,08,15,16,08,29.40
2012,08,15,16,10,29.40
2012,08,15,16,11,29.40
2012,08,15,16,12,29.40
2012,08,15,16,13,29.40
2012,08,15,16,15,29.40
2012,08,15,16,16,29.40
2012,08,15,16,17,29.40
2012,08,15,16,19,29.40
2012,08,15,16,20,29.40
2012,08,15,16,21,29.40
2012,08,15,16,22,29.40
2012,08,15,16,23,29.40
2012,08,15,16,25,29.40
2012,08,15,16,26,29.40
2012,08,15,16,27,29.40
2012,08,15,16,29,29.40
2012,08,15,16,30,29.50
2012,08,15,16,31,29.50
2012,08,15,16,33,29.60
2012,08,15,16,34,29.60
2012,08,15,16,35,29.60
2012,08,15,16,36,29.60
2012,08,15,16,37,29.70
2012,08,15,16,38,29.70
2012,08,15,16,39,29.70
2012,08,15,16,40,29.70
2012,08,15,16,41,29.70
2012,08,15,16,42,29.70
2012,08,15,16,43,29.70
2012,08,15,16,44,29.70
2012,08,15,16,46,29.70
2012,08,15,16,47,29.70
2012,08,15,16,48,29.70
2012,08,15,16,49,29.70
2012,08,15,16,51,29.70
2012,08,15,16,52,29.70
2012,08,15,16,53,29.70
2012,08,15,16,55,29.60
2012,08,15,16,56,29.60
2012,08,15,16,57,29.60
2012,08,15,16,58,29.60
2012,08,15,16,59,29.60
2012,08,15,17,00,29.70
2012,08,15,17,01,29.70
2012,08,15,17,02,29.70
2012,08,15,17,03,29.70
2012,08,15,17,05,29.70
2012,08,15,17,06,29.70
2012,08,15,17,07,29.70
2012,08,15,17,08,29.70
2012,08,15,17,09,29.70
2012,08,15,17,10,29.60
2012,08,15,17,11,29.50
2012,08,15,17,13,29.40
2012,08,15,17,14,29.40
2012,08,15,17,15,29.50
2012,08,15,17,17,29.50
2012,08,15,17,18,29.50
2012,08,15,17,19,29.50
2012,08,15,17,20,29.50
2012,08,15,17,22,29.60
2012,08,15,17,23,29.60
2012,08,15,17,24,29.60
2012,08,15,17,25,29.60
2012,08,15,17,26,29.60
2012,08,15,17,27,29.70
2012,08,15,17,28,29.60
2012,08,15,17,29,29.60
2012,08,15,17,30,29.70
2012,08,15,17,31,29.70
2012,08,15,17,32,29.70
2012,08,15,17,33,29.70
2012,08,15,17,34,29.70
2012,08,15,17,35,29.70
2012,08,15,17,36,29.80
2012,08,15,17,37,29.80
2012,08,15,17,38,29.80
2012,08,15,17,39,29.80
2012,08,15,17,40,29.80
2012,08,15,17,42,29.80
2012,08,15,17,43,29.70
2012,08,15,17,44,29.70
2012,08,15,17,45,29.70
2012,08,15,17,46,29.70
2012,08,15,17,47,29.70
2012,08,15,17,48,29.70
2012,08,15,17,49,29.70
2012,08,15,17,50,29.80
2012,08,15,17,52,29.80
2012,08,15,17,53,29.80
2012,08,15,17,54,29.80
2012,08,15,17,55,29.80
2012,08,15,17,57,29.80
2012,08,15,17,58,29.80
2012,08,15,17,59,29.80
2012,08,15,18,00,29.90
2012,08,15,18,02,29.90
2012,08,15,18,03,29.90
2012,08,15,18,04,29.90
2012,08,15,18,06,29.80
2012,08,15,18,07,29.80
2012,08,15,18,08,29.80
2012,08,15,18,09,29.80
2012,08,15,18,11,29.80
2012,08,15,18,12,29.70
2012,08,15,18,13,29.60
2012,08,15,18,14,29.60
2012,08,15,18,16,29.60
2012,08,15,18,17,29.50
2012,08,15,18,18,29.50
2012,08,15,18,19,29.50
2012,08,15,18,20,29.50
2012,08,15,18,21,29.50
2012,08,15,18,22,29.40
2012,08,15,18,23,29.40
2012,08,15,18,24,29.40
2012,08,15,18,25,29.40
2012,08,15,18,26,29.50
2012,08,15,18,27,29.60
2012,08,15,18,28,29.60
2012,08,15,18,29,29.60
2012,08,15,18,31,29.60
2012,08,15,18,32,29.60
2012,08,15,18,33,29.60
2012,08,15,18,35,29.60
2012,08,15,18,36,29.60
2012,08,15,18,37,29.60
2012,08,15,18,38,29.60
2012,08,15,18,39,29.60
2012,08,15,18,41,29.60
2012,08,15,18,42,29.60
2012,08,15,18,43,29.60
2012,08,15,18,44,29.40
2012,08,15,18,46,29.40
2012,08,15,18,47,29.30
2012,08,15,18,48,29.30
2012,08,15,18,49,29.30
2012,08,15,18,50,29.30
2012,08,15,18,51,29.30
2012,08,15,18,52,29.30
2012,08,15,18,53,29.30
2012,08,15,18,54,29.30
2012,08,15,18,55,29.30
2012,08,15,18,56,29.20
2012,08,15,18,57,29.20
2012,08,15,18,59,29.20
2012,08,15,19,00,29.20
2012,08,15,19,01,29.20
2012,08,15,19,03,29.20
2012,08,15,19,04,29.00
2012,08,15,19,05,28.90
2012,08,15,19,06,28.80
2012,08,15,19,07,28.70
2012,08,15,19,08,28.60
2012,08,15,19,09,28.60
2012,08,15,19,10,28.60
2012,08,15,19,12,28.60
2012,08,15,19,13,28.60
2012,08,15,19,14,28.60
2012,08,15,19,16,28.60
2012,08,15,19,17,28.60
2012,08,15,19,18,28.50
2012,08,15,19,20,28.50
2012,08,15,19,21,28.50
2012,08,15,19,22,28.50
2012,08,15,19,24,28.50
2012,08,15,19,25,28.40
2012,08,15,19,26,28.40
2012,08,15,19,27,28.40
2012,08,15,19,28,28.40
2012,08,15,19,29,28.40
2012,08,15,19,30,28.30
2012,08,15,19,31,28.30
2012,08,15,19,33,28.20
2012,08,15,19,34,28.20
2012,08,15,19,35,28.10
2012,08,15,19,36,28.10
2012,08,15,19,37,28.10
2012,08,15,19,38,28.10
2012,08,15,19,39,28.10
2012,08,15,19,40,28.10
2012,08,15,19,42,28.10
2012,08,15,19,43,28.00
2012,08,15,19,44,28.00
2012,08,15,19,45,27.90
2012,08,15,19,46,27.90
2012,08,15,19,47,27.90
2012,08,15,19,48,27.80
2012,08,15,19,49,27.80
2012,08,15,19,51,27.70
2012,08,15,19,52,27.60
2012,08,15,19,53,27.50
2012,08,15,19,54,27.40
2012,08,15,19,55,27.40
2012,08,15,19,57,27.30
2012,08,15,19,58,27.30
2012,08,15,19,59,27.20
2012,08,15,20,00,27.10
2012,08,15,20,01,27.10
2012,08,15,20,03,26.90
2012,08,15,20,04,26.80
2012,08,15,20,05,26.70
2012,08,15,20,06,26.60
2012,08,15,20,08,26.60
2012,08,15,20,09,26.40
2012,08,15,20,10,26.40